Time,TemperatureF,DewpointF,PressureIn,WindDirection,WindDirectionDegrees,WindSpeedMPH,WindSpeedGustMPH,Humidity,HourlyPrecipIn,Conditions,Clouds,dailyrainin,SoftwareType,DateUTC
2013-02-15 00:00:00,11.6,5.2,30.27,East,90,0.0,0.0,75,0.00,,,0.00,Wunderground v.1.15,2013-02-15 07:00:00,
2013-02-15 00:10:00,11.6,5.2,30.27,East,90,0.0,0.0,75,0.00,,,0.00,Wunderground v.1.15,2013-02-15 07:10:00,
2013-02-15 00:15:00,11.7,5.3,30.28,East,90,0.0,0.0,75,0.00,,,0.00,Wunderground v.1.15,2013-02-15 07:15:00,
2013-02-15 00:25:00,11.7,5.3,30.28,East,90,0.0,0.0,75,0.00,,,0.00,Wunderground v.1.15,2013-02-15 07:25:00,
2013-02-15 00:30:00,11.7,5.3,30.30,East,90,0.0,0.0,75,0.00,,,0.00,Wunderground v.1.15,2013-02-15 07:30:00,
2013-02-15 00:40:00,11.9,5.5,30.30,East,90,0.0,0.0,75,0.00,,,0.00,Wunderground v.1.15,2013-02-15 07:40:00,
2013-02-15 00:45:00,11.9,5.5,30.30,East,90,0.0,0.0,75,0.00,,,0.00,Wunderground v.1.15,2013-02-15 07:45:00,
2013-02-15 00:55:00,11.9,5.5,30.30,East,90,0.0,0.0,75,0.00,,,0.00,Wunderground v.1.15,2013-02-15 07:55:00,
2013-02-15 01:00:00,11.9,5.5,30.30,East,90,0.0,0.0,75,0.00,,,0.00,Wunderground v.1.15,2013-02-15 08:00:00,
2013-02-15 01:05:00,11.9,5.8,30.30,East,90,0.0,0.0,76,0.00,,,0.00,Wunderground v.1.15,2013-02-15 08:05:00,
2013-02-15 01:15:00,11.9,5.8,30.30,East,90,0.0,0.0,76,0.00,,,0.00,Wunderground v.1.15,2013-02-15 08:15:00,
2013-02-15 01:25:00,11.6,5.5,30.30,East,90,0.0,0.0,76,0.00,,,0.00,Wunderground v.1.15,2013-02-15 08:25:00,
2013-02-15 01:30:00,11.1,5.0,30.31,East,90,0.0,0.0,76,0.00,,,0.00,Wunderground v.1.15,2013-02-15 08:30:00,
2013-02-15 01:40:00,10.7,4.9,30.31,East,90,0.0,0.0,77,0.00,,,0.00,Wunderground v.1.15,2013-02-15 08:40:00,
2013-02-15 01:45:00,10.5,4.7,30.31,East,90,0.0,0.0,77,0.00,,,0.00,Wunderground v.1.15,2013-02-15 08:45:00,
2013-02-15 01:55:00,10.2,4.1,30.31,East,90,0.0,0.0,76,0.00,,,0.00,Wunderground v.1.15,2013-02-15 08:55:00,
2013-02-15 02:00:00,9.9,3.8,30.31,East,90,0.0,0.0,76,0.00,,,0.00,Wunderground v.1.15,2013-02-15 09:00:00,
2013-02-15 02:10:00,9.3,3.3,30.31,East,90,0.0,0.0,76,0.00,,,0.00,Wunderground v.1.15,2013-02-15 09:10:00,
2013-02-15 02:15:00,9.2,3.2,30.32,East,90,0.0,0.0,76,0.00,,,0.00,Wunderground v.1.15,2013-02-15 09:15:00,
2013-02-15 02:20:00,9.0,3.0,30.32,East,90,0.0,0.0,76,0.00,,,0.00,Wunderground v.1.15,2013-02-15 09:20:00,
2013-02-15 02:25:00,8.6,2.6,30.32,East,90,0.0,0.0,76,0.00,,,0.00,Wunderground v.1.15,2013-02-15 09:25:00,
2013-02-15 02:35:00,8.1,2.4,30.34,East,90,0.0,0.0,77,0.00,,,0.00,Wunderground v.1.15,2013-02-15 09:35:00,
2013-02-15 02:40:00,8.1,2.4,30.34,East,90,0.0,0.0,77,0.00,,,0.00,Wunderground v.1.15,2013-02-15 09:40:00,
2013-02-15 02:45:00,8.1,2.4,30.34,East,90,0.0,0.0,77,0.00,,,0.00,Wunderground v.1.15,2013-02-15 09:45:00,
2013-02-15 03:00:00,8.3,2.6,30.34,East,90,0.0,0.0,77,0.00,,,0.00,Wunderground v.1.15,2013-02-15 10:00:00,
2013-02-15 03:10:00,8.3,2.9,30.34,East,90,0.0,0.0,78,0.00,,,0.00,Wunderground v.1.15,2013-02-15 10:10:00,
2013-02-15 03:15:00,8.8,3.6,30.34,East,90,0.0,0.0,79,0.00,,,0.00,Wunderground v.1.15,2013-02-15 10:15:00,
2013-02-15 03:25:00,9.3,4.1,30.34,WNW,292,0.0,0.0,79,0.00,,,0.00,Wunderground v.1.15,2013-02-15 10:25:00,
2013-02-15 03:30:00,9.7,4.2,30.34,WNW,292,0.0,0.0,78,0.00,,,0.00,Wunderground v.1.15,2013-02-15 10:30:00,
2013-02-15 03:40:00,9.9,4.4,30.34,WNW,291,0.0,0.0,78,0.00,,,0.00,Wunderground v.1.15,2013-02-15 10:40:00,
2013-02-15 03:45:00,9.9,4.1,30.34,WNW,292,0.0,0.0,77,0.00,,,0.00,Wunderground v.1.15,2013-02-15 10:45:00,
2013-02-15 03:55:00,9.9,4.1,30.34,WNW,292,0.0,0.0,77,0.00,,,0.00,Wunderground v.1.15,2013-02-15 10:55:00,
2013-02-15 04:00:00,10.0,4.2,30.33,WNW,292,0.0,0.0,77,0.00,,,0.00,Wunderground v.1.15,2013-02-15 11:00:00,
2013-02-15 04:05:00,10.2,4.4,30.33,WNW,292,0.0,0.0,77,0.00,,,0.00,Wunderground v.1.15,2013-02-15 11:05:00,
2013-02-15 04:10:00,10.4,4.6,30.33,WNW,292,0.0,0.0,77,0.00,,,0.00,Wunderground v.1.15,2013-02-15 11:10:00,
2013-02-15 04:15:00,10.7,4.9,30.31,WNW,292,0.0,0.0,77,0.00,,,0.00,Wunderground v.1.15,2013-02-15 11:15:00,
2013-02-15 04:25:00,10.9,4.2,30.31,NNW,336,0.0,0.0,74,0.00,,,0.00,Wunderground v.1.15,2013-02-15 11:25:00,
2013-02-15 04:30:00,10.5,4.1,30.36,NNW,335,0.0,0.0,75,0.00,,,0.00,Wunderground v.1.15,2013-02-15 11:30:00,
2013-02-15 04:40:00,12.9,5.6,30.36,NNW,335,0.0,0.0,72,0.00,,,0.00,Wunderground v.1.15,2013-02-15 11:40:00,
2013-02-15 04:45:00,13.1,5.1,30.34,NW,320,0.0,0.0,70,0.00,,,0.00,Wunderground v.1.15,2013-02-15 11:45:00,
2013-02-15 04:55:00,13.1,5.1,30.34,ESE,117,0.0,0.0,70,0.00,,,0.00,Wunderground v.1.15,2013-02-15 11:55:00,
2013-02-15 05:00:00,15.1,5.8,30.33,WSW,241,0.0,0.0,66,0.00,,,0.00,Wunderground v.1.15,2013-02-15 12:00:00,
2013-02-15 05:10:00,16.1,5.7,30.33,North,359,0.0,0.0,63,0.00,,,0.00,Wunderground v.1.15,2013-02-15 12:10:00,
2013-02-15 05:20:00,18.3,5.2,30.32,WNW,282,2.0,2.0,56,0.00,,,0.00,Wunderground v.1.15,2013-02-15 12:20:00,
2013-02-15 05:25:00,18.8,5.3,30.32,WNW,302,2.0,2.0,55,0.00,,,0.00,Wunderground v.1.15,2013-02-15 12:25:00,
2013-02-15 05:30:00,18.4,5.3,30.32,North,359,0.0,0.0,56,0.00,,,0.00,Wunderground v.1.15,2013-02-15 12:30:00,
2013-02-15 05:40:00,19.1,5.2,30.32,WNW,285,1.0,5.0,54,0.00,,,0.00,Wunderground v.1.15,2013-02-15 12:40:00,
2013-02-15 05:45:00,19.9,5.5,30.33,WNW,299,1.0,5.0,53,0.00,,,0.00,Wunderground v.1.15,2013-02-15 12:45:00,
2013-02-15 05:55:00,20.2,5.8,30.33,WSW,256,1.0,1.0,53,0.00,,,0.00,Wunderground v.1.15,2013-02-15 12:55:00,
2013-02-15 06:00:00,20.2,5.8,30.34,South,186,1.0,1.0,53,0.00,,,0.00,Wunderground v.1.15,2013-02-15 13:00:00,
2013-02-15 06:10:00,20.0,6.0,30.34,NNW,347,0.0,0.0,54,0.00,,,0.00,Wunderground v.1.15,2013-02-15 13:10:00,
2013-02-15 06:15:00,20.0,5.6,30.34,SSW,193,0.0,0.0,53,0.00,,,0.00,Wunderground v.1.15,2013-02-15 13:15:00,
2013-02-15 06:25:00,20.2,5.8,30.34,WSW,254,0.0,0.0,53,0.00,,,0.00,Wunderground v.1.15,2013-02-15 13:25:00,
2013-02-15 06:30:00,20.2,5.8,30.29,West,272,0.0,0.0,53,0.00,,,0.00,Wunderground v.1.15,2013-02-15 13:30:00,
2013-02-15 06:40:00,20.0,5.2,30.29,West,272,0.0,0.0,52,0.00,,,0.00,Wunderground v.1.15,2013-02-15 13:40:00,
2013-02-15 06:45:00,20.0,5.2,30.29,West,272,0.0,0.0,52,0.00,,,0.00,Wunderground v.1.15,2013-02-15 13:45:00,
2013-02-15 06:55:00,20.2,5.8,30.29,South,186,0.0,0.0,53,0.00,,,0.00,Wunderground v.1.15,2013-02-15 13:55:00,
2013-02-15 07:00:00,20.2,5.8,30.29,South,186,0.0,0.0,53,0.00,,,0.00,Wunderground v.1.15,2013-02-15 14:00:00,
2013-02-15 07:10:00,20.0,5.6,30.29,South,186,0.0,0.0,53,0.00,,,0.00,Wunderground v.1.15,2013-02-15 14:10:00,
2013-02-15 07:15:00,19.9,5.5,30.30,South,191,0.0,0.0,53,0.00,,,0.00,Wunderground v.1.15,2013-02-15 14:15:00,
2013-02-15 07:25:00,19.5,5.1,30.30,WSW,243,0.0,0.0,53,0.00,,,0.00,Wunderground v.1.15,2013-02-15 14:25:00,
2013-02-15 07:30:00,19.2,6.1,30.38,WSW,243,0.0,0.0,56,0.00,,,0.00,Wunderground v.1.15,2013-02-15 14:30:00,
2013-02-15 07:40:00,19.2,6.1,30.38,WSW,243,0.0,0.0,56,0.00,,,0.00,Wunderground v.1.15,2013-02-15 14:40:00,
2013-02-15 07:45:00,19.7,4.9,30.38,WSW,241,0.0,0.0,52,0.00,,,0.00,Wunderground v.1.15,2013-02-15 14:45:00,
2013-02-15 07:55:00,20.8,3.7,30.38,West,272,0.0,1.0,47,0.00,,,0.00,Wunderground v.1.15,2013-02-15 14:55:00,
2013-02-15 08:00:00,21.0,3.9,30.36,West,272,0.0,0.0,47,0.00,,,0.00,Wunderground v.1.15,2013-02-15 15:00:00,
2013-02-15 08:10:00,21.0,3.9,30.36,SW,215,0.0,0.0,47,0.00,,,0.00,Wunderground v.1.15,2013-02-15 15:10:00,
2013-02-15 08:15:00,21.1,3.0,30.36,NNW,347,0.0,0.0,45,0.00,,,0.00,Wunderground v.1.15,2013-02-15 15:15:00,
2013-02-15 08:25:00,21.9,2.3,30.36,West,272,0.0,1.0,42,0.00,,,0.00,Wunderground v.1.15,2013-02-15 15:25:00,
2013-02-15 08:30:00,22.1,2.5,30.36,West,281,0.0,0.0,42,0.00,,,0.00,Wunderground v.1.15,2013-02-15 15:30:00,
2013-02-15 08:40:00,22.2,2.0,30.36,SW,217,0.0,0.0,41,0.00,,,0.00,Wunderground v.1.15,2013-02-15 15:40:00,
2013-02-15 08:45:00,22.5,1.2,30.36,WNW,296,1.0,1.0,39,0.00,,,0.00,Wunderground v.1.15,2013-02-15 15:45:00,
2013-02-15 08:55:00,22.9,2.1,30.36,West,275,0.0,1.0,40,0.00,,,0.00,Wunderground v.1.15,2013-02-15 15:55:00,
2013-02-15 09:00:00,23.2,2.4,30.35,NW,308,0.0,8.0,40,0.00,,,0.00,Wunderground v.1.15,2013-02-15 16:00:00,
2013-02-15 09:10:00,23.3,1.4,30.35,North,0,1.0,1.0,38,0.00,,,0.00,Wunderground v.1.15,2013-02-15 16:10:00,
2013-02-15 09:15:00,23.8,1.8,30.36,North,1,1.0,3.0,38,0.00,,,0.00,Wunderground v.1.15,2013-02-15 16:15:00,
2013-02-15 09:25:00,24.2,1.6,30.36,NW,313,1.0,1.0,37,0.00,,,0.00,Wunderground v.1.15,2013-02-15 16:25:00,
2013-02-15 09:30:00,24.2,1.6,30.34,North,0,2.0,2.0,37,0.00,,,0.00,Wunderground v.1.15,2013-02-15 16:30:00,
2013-02-15 09:40:00,24.2,1.6,30.34,North,359,0.0,0.0,37,0.00,,,0.00,Wunderground v.1.15,2013-02-15 16:40:00,
2013-02-15 09:45:00,24.2,1.0,30.34,NNE,27,1.0,1.0,36,0.00,,,0.00,Wunderground v.1.15,2013-02-15 16:45:00,
2013-02-15 09:55:00,24.2,-0.8,30.34,NNW,347,1.0,3.0,33,0.00,,,0.00,Wunderground v.1.15,2013-02-15 16:55:00,
2013-02-15 10:00:00,24.5,-1.2,30.34,North,356,2.0,13.0,32,0.00,,,0.00,Wunderground v.1.15,2013-02-15 17:00:00,
2013-02-15 10:10:00,24.8,-0.9,30.34,SSE,150,11.0,11.0,32,0.00,,,0.00,Wunderground v.1.15,2013-02-15 17:10:00,
2013-02-15 10:15:00,24.8,-0.9,30.34,NW,313,8.0,11.0,32,0.00,,,0.00,Wunderground v.1.15,2013-02-15 17:15:00,
2013-02-15 10:25:00,25.6,-0.2,30.34,North,6,10.0,10.0,32,0.00,,,0.00,Wunderground v.1.15,2013-02-15 17:25:00,
2013-02-15 10:30:00,25.7,-2.2,30.34,West,274,7.0,15.0,29,0.00,,,0.00,Wunderground v.1.15,2013-02-15 17:30:00,
2013-02-15 10:40:00,25.8,-2.9,30.34,South,169,9.0,9.0,28,0.00,,,0.00,Wunderground v.1.15,2013-02-15 17:40:00,
2013-02-15 10:45:00,25.8,-2.9,30.34,NNE,27,9.0,9.0,28,0.00,,,0.00,Wunderground v.1.15,2013-02-15 17:45:00,
2013-02-15 10:55:00,25.7,-2.2,30.34,WNW,288,10.0,18.0,29,0.00,,,0.00,Wunderground v.1.15,2013-02-15 17:55:00,
2013-02-15 11:00:00,26.4,-1.6,30.34,NE,54,8.0,8.0,29,0.00,,,0.00,Wunderground v.1.15,2013-02-15 18:00:00,
2013-02-15 11:10:00,26.7,-2.1,30.34,SW,229,5.0,7.0,28,0.00,,,0.00,Wunderground v.1.15,2013-02-15 18:10:00,
2013-02-15 11:15:00,26.7,-2.9,30.32,WNW,285,6.0,7.0,27,0.00,,,0.00,Wunderground v.1.15,2013-02-15 18:15:00,
2013-02-15 11:25:00,27.0,-1.8,30.32,West,281,7.0,7.0,28,0.00,,,0.00,Wunderground v.1.15,2013-02-15 18:25:00,
2013-02-15 11:30:00,26.9,-1.9,30.33,NW,312,5.0,5.0,28,0.00,,,0.00,Wunderground v.1.15,2013-02-15 18:30:00,
2013-02-15 11:35:00,27.2,-2.4,30.33,North,0,6.0,7.0,27,0.00,,,0.00,Wunderground v.1.15,2013-02-15 18:35:00,
2013-02-15 11:40:00,26.9,-2.7,30.33,West,265,7.0,11.0,27,0.00,,,0.00,Wunderground v.1.15,2013-02-15 18:40:00,
2013-02-15 11:45:00,26.7,-2.1,30.34,SSE,164,8.0,11.0,28,0.00,,,0.00,Wunderground v.1.15,2013-02-15 18:45:00,
2013-02-15 11:55:00,26.9,-1.9,30.34,West,268,6.0,14.0,28,0.00,,,0.00,Wunderground v.1.15,2013-02-15 18:55:00,
2013-02-15 12:00:00,26.9,-1.2,30.33,WNW,289,7.0,7.0,29,0.00,,,0.00,Wunderground v.1.15,2013-02-15 19:00:00,
2013-02-15 12:10:00,27.2,-1.7,30.33,WNW,282,4.0,4.0,28,0.00,,,0.00,Wunderground v.1.15,2013-02-15 19:10:00,
2013-02-15 12:15:00,27.0,-1.8,30.33,West,281,4.0,24.0,28,0.00,,,0.00,Wunderground v.1.15,2013-02-15 19:15:00,
2013-02-15 12:25:00,27.5,-1.4,30.33,South,176,3.0,3.0,28,0.00,,,0.00,Wunderground v.1.15,2013-02-15 19:25:00,
2013-02-15 12:30:00,27.8,-1.1,30.32,NW,304,4.0,4.0,28,0.00,,,0.00,Wunderground v.1.15,2013-02-15 19:30:00,
2013-02-15 12:40:00,27.0,-1.8,30.32,South,176,5.0,5.0,28,0.00,,,0.00,Wunderground v.1.15,2013-02-15 19:40:00,
2013-02-15 12:45:00,27.2,-2.4,30.34,NNW,347,5.0,11.0,27,0.00,,,0.00,Wunderground v.1.15,2013-02-15 19:45:00,
2013-02-15 12:50:00,27.5,-1.4,30.34,NNE,18,5.0,5.0,28,0.00,,,0.00,Wunderground v.1.15,2013-02-15 19:50:00,
2013-02-15 12:55:00,27.6,-1.3,30.34,SSW,200,6.0,6.0,28,0.00,,,0.00,Wunderground v.1.15,2013-02-15 19:55:00,
2013-02-15 13:00:00,27.2,-1.7,30.32,WNW,285,5.0,10.0,28,0.00,,,0.00,Wunderground v.1.15,2013-02-15 20:00:00,
2013-02-15 13:10:00,27.2,-1.7,30.32,WNW,294,8.0,14.0,28,0.00,,,0.00,Wunderground v.1.15,2013-02-15 20:10:00,
2013-02-15 13:15:00,27.0,-1.8,30.33,West,265,7.0,14.0,28,0.00,,,0.00,Wunderground v.1.15,2013-02-15 20:15:00,
2013-02-15 13:25:00,27.6,-1.3,30.33,SW,234,6.0,7.0,28,0.00,,,0.00,Wunderground v.1.15,2013-02-15 20:25:00,
2013-02-15 13:30:00,27.6,-1.3,30.35,NNW,346,5.0,5.0,28,0.00,,,0.00,Wunderground v.1.15,2013-02-15 20:30:00,
2013-02-15 13:40:00,27.6,-2.1,30.35,West,275,6.0,13.0,27,0.00,,,0.00,Wunderground v.1.15,2013-02-15 20:40:00,
2013-02-15 13:45:00,27.5,-1.4,30.36,South,191,7.0,13.0,28,0.00,,,0.00,Wunderground v.1.15,2013-02-15 20:45:00,
2013-02-15 13:55:00,28.1,-1.7,30.36,NW,325,6.0,7.0,27,0.00,,,0.00,Wunderground v.1.15,2013-02-15 20:55:00,
2013-02-15 14:00:00,28.2,-2.4,30.36,NW,322,4.0,19.0,26,0.00,,,0.00,Wunderground v.1.15,2013-02-15 21:00:00,
2013-02-15 14:10:00,28.2,-1.6,30.36,WNW,284,5.0,5.0,27,0.00,,,0.00,Wunderground v.1.15,2013-02-15 21:10:00,
2013-02-15 14:15:00,28.7,-2.8,30.35,WNW,284,4.0,13.0,25,0.00,,,0.00,Wunderground v.1.15,2013-02-15 21:15:00,
2013-02-15 14:20:00,28.4,-3.0,30.35,NNW,335,4.0,4.0,25,0.00,,,0.00,Wunderground v.1.15,2013-02-15 21:20:00,
2013-02-15 14:25:00,28.4,-3.0,30.35,NW,323,4.0,5.0,25,0.00,,,0.00,Wunderground v.1.15,2013-02-15 21:25:00,
2013-02-15 14:35:00,29.0,-2.5,30.33,WNW,295,4.0,11.0,25,0.00,,,0.00,Wunderground v.1.15,2013-02-15 21:35:00,
2013-02-15 14:40:00,28.8,-2.7,30.33,South,182,4.0,4.0,25,0.00,,,0.00,Wunderground v.1.15,2013-02-15 21:40:00,
2013-02-15 14:45:00,28.5,-2.9,30.34,WNW,288,4.0,4.0,25,0.00,,,0.00,Wunderground v.1.15,2013-02-15 21:45:00,
2013-02-15 14:55:00,28.7,-2.8,30.34,NW,312,4.0,13.0,25,0.00,,,0.00,Wunderground v.1.15,2013-02-15 21:55:00,
2013-02-15 15:00:00,29.0,-3.4,30.34,WNW,288,4.0,4.0,24,0.00,,,0.00,Wunderground v.1.15,2013-02-15 22:00:00,
2013-02-15 15:10:00,28.5,-3.8,30.34,WNW,292,3.0,3.0,24,0.00,,,0.00,Wunderground v.1.15,2013-02-15 22:10:00,
2013-02-15 15:15:00,28.2,-3.2,30.35,NNW,329,3.0,5.0,25,0.00,,,0.00,Wunderground v.1.15,2013-02-15 22:15:00,
2013-02-15 15:25:00,27.6,-2.9,30.35,SW,222,4.0,4.0,26,0.00,,,0.00,Wunderground v.1.15,2013-02-15 22:25:00,
2013-02-15 15:30:00,27.5,-3.0,30.35,West,280,2.0,2.0,26,0.00,,,0.00,Wunderground v.1.15,2013-02-15 22:30:00,
2013-02-15 15:35:00,27.3,-4.0,30.35,NNE,13,3.0,6.0,25,0.00,,,0.00,Wunderground v.1.15,2013-02-15 22:35:00,
2013-02-15 15:45:00,27.5,-3.0,30.35,NNW,330,3.0,5.0,26,0.00,,,0.00,Wunderground v.1.15,2013-02-15 22:45:00,
2013-02-15 15:55:00,27.3,-2.3,30.35,NNE,23,2.0,7.0,27,0.00,,,0.00,Wunderground v.1.15,2013-02-15 22:55:00,
2013-02-15 16:00:00,27.3,-2.3,30.34,West,274,2.0,2.0,27,0.00,,,0.00,Wunderground v.1.15,2013-02-15 23:00:00,
2013-02-15 16:10:00,26.9,-1.9,30.34,NNE,20,2.0,2.0,28,0.00,,,0.00,Wunderground v.1.15,2013-02-15 23:10:00,
2013-02-15 16:15:00,26.6,-1.4,30.35,WSW,239,3.0,3.0,29,0.00,,,0.00,Wunderground v.1.15,2013-02-15 23:15:00,
2013-02-15 16:25:00,26.4,-2.4,30.35,ENE,65,2.0,7.0,28,0.00,,,0.00,Wunderground v.1.15,2013-02-15 23:25:00,
2013-02-15 16:30:00,26.4,-2.4,30.31,WNW,298,2.0,2.0,28,0.00,,,0.00,Wunderground v.1.15,2013-02-15 23:30:00,
2013-02-15 16:40:00,26.4,-2.4,30.31,WSW,243,3.0,3.0,28,0.00,,,0.00,Wunderground v.1.15,2013-02-15 23:40:00,
2013-02-15 16:45:00,26.6,-2.2,30.31,NNW,346,3.0,3.0,28,0.00,,,0.00,Wunderground v.1.15,2013-02-15 23:45:00,
2013-02-15 16:50:00,26.6,-2.2,30.31,NNW,329,3.0,3.0,28,0.00,,,0.00,Wunderground v.1.15,2013-02-15 23:50:00,
2013-02-15 16:55:00,26.4,-3.1,30.31,WNW,287,4.0,5.0,27,0.00,,,0.00,Wunderground v.1.15,2013-02-15 23:55:00,
2013-02-15 17:05:00,26.6,-3.0,30.32,North,356,4.0,6.0,27,0.00,,,0.00,Wunderground v.1.15,2013-02-16 00:05:00,
2013-02-15 17:10:00,26.4,-2.4,30.32,WNW,299,2.0,2.0,28,0.00,,,0.00,Wunderground v.1.15,2013-02-16 00:10:00,
2013-02-15 17:15:00,26.3,-2.4,30.31,North,0,1.0,2.0,28,0.00,,,0.00,Wunderground v.1.15,2013-02-16 00:15:00,
2013-02-15 17:25:00,25.7,-1.5,30.31,SW,215,1.0,1.0,30,0.00,,,0.00,Wunderground v.1.15,2013-02-16 00:25:00,
2013-02-15 17:30:00,25.6,-1.6,30.28,South,185,1.0,1.0,30,0.00,,,0.00,Wunderground v.1.15,2013-02-16 00:30:00,
2013-02-15 17:40:00,25.3,-1.9,30.28,SSE,155,1.0,1.0,30,0.00,,,0.00,Wunderground v.1.15,2013-02-16 00:40:00,
2013-02-15 17:45:00,25.1,-2.0,30.29,SSE,167,1.0,1.0,30,0.00,,,0.00,Wunderground v.1.15,2013-02-16 00:45:00,
2013-02-15 17:50:00,25.0,-2.1,30.29,South,191,1.0,1.0,30,0.00,,,0.00,Wunderground v.1.15,2013-02-16 00:50:00,
2013-02-15 18:00:00,25.0,-1.4,30.29,West,267,1.0,1.0,31,0.00,,,0.00,Wunderground v.1.15,2013-02-16 01:00:00,
2013-02-15 18:05:00,24.8,-1.6,30.29,South,178,1.0,1.0,31,0.00,,,0.00,Wunderground v.1.15,2013-02-16 01:05:00,
2013-02-15 18:15:00,24.8,-1.6,30.29,NNW,340,1.0,1.0,31,0.00,,,0.00,Wunderground v.1.15,2013-02-16 01:15:00,
2013-02-15 18:25:00,24.8,-1.6,30.29,South,186,4.0,11.0,31,0.00,,,0.00,Wunderground v.1.15,2013-02-16 01:25:00,
2013-02-15 18:30:00,24.8,-1.6,30.30,South,174,6.0,6.0,31,0.00,,,0.00,Wunderground v.1.15,2013-02-16 01:30:00,
2013-02-15 18:40:00,25.1,-1.3,30.30,SSW,195,6.0,6.0,31,0.00,,,0.00,Wunderground v.1.15,2013-02-16 01:40:00,
2013-02-15 18:45:00,25.3,-1.9,30.30,SSW,205,4.0,6.0,30,0.00,,,0.00,Wunderground v.1.15,2013-02-16 01:45:00,
2013-02-15 18:55:00,25.3,-1.9,30.30,WNW,285,14.0,14.0,30,0.00,,,0.00,Wunderground v.1.15,2013-02-16 01:55:00,
2013-02-15 19:00:00,-999.9,-99.9,30.30,North,32767,-999.0,0.0,255,-99.99,,,0.00,Wunderground v.1.15,2013-02-16 02:00:00,
2013-02-15 19:05:00,-999.9,-99.9,30.30,North,32767,-999.0,0.0,255,-99.99,,,0.00,Wunderground v.1.15,2013-02-16 02:05:00,
2013-02-15 19:10:00,-999.9,-99.9,30.30,North,32767,-999.0,0.0,255,-99.99,,,0.00,Wunderground v.1.15,2013-02-16 02:10:00,
2013-02-15 19:20:00,25.0,-99.9,30.27,South,191,0.0,0.0,255,0.00,,,0.00,Wunderground v.1.15,2013-02-16 02:20:00,
2013-02-15 19:25:00,25.0,-99.9,30.27,SW,236,0.0,0.0,255,0.00,,,0.00,Wunderground v.1.15,2013-02-16 02:25:00,
2013-02-15 19:30:00,24.7,2.1,30.29,SSW,203,3.0,3.0,37,0.00,,,0.00,Wunderground v.1.15,2013-02-16 02:30:00,
2013-02-15 19:40:00,24.5,1.9,30.29,ENE,64,0.0,0.0,37,0.00,,,0.00,Wunderground v.1.15,2013-02-16 02:40:00,
2013-02-15 19:45:00,24.4,2.9,30.31,SSW,213,5.0,5.0,39,0.00,,,0.00,Wunderground v.1.15,2013-02-16 02:45:00,
2013-02-15 19:55:00,24.2,2.8,30.31,SSW,195,11.0,11.0,39,0.00,,,0.00,Wunderground v.1.15,2013-02-16 02:55:00,
2013-02-15 20:00:00,24.2,2.8,30.30,South,182,10.0,10.0,39,0.00,,,0.00,Wunderground v.1.15,2013-02-16 03:00:00,
2013-02-15 20:05:00,24.2,3.3,30.30,South,174,14.0,14.0,40,0.00,,,0.00,Wunderground v.1.15,2013-02-16 03:05:00,
2013-02-15 20:15:00,24.4,3.5,30.30,SSW,199,7.0,7.0,40,0.00,,,0.00,Wunderground v.1.15,2013-02-16 03:15:00,
2013-02-15 20:25:00,24.7,2.7,30.30,SSE,158,5.0,7.0,38,0.00,,,0.00,Wunderground v.1.15,2013-02-16 03:25:00,
2013-02-15 20:30:00,24.7,2.7,30.27,SSW,212,3.0,12.0,38,0.00,,,0.00,Wunderground v.1.15,2013-02-16 03:30:00,
2013-02-15 20:40:00,24.8,2.7,30.27,SSW,198,6.0,6.0,38,0.00,,,0.00,Wunderground v.1.15,2013-02-16 03:40:00,
2013-02-15 20:45:00,24.8,2.7,30.27,SE,138,9.0,9.0,38,0.00,,,0.00,Wunderground v.1.15,2013-02-16 03:45:00,
2013-02-15 20:55:00,25.1,4.1,30.27,SW,219,7.0,11.0,40,0.00,,,0.00,Wunderground v.1.15,2013-02-16 03:55:00,
2013-02-15 21:05:00,25.1,4.7,30.26,SSE,161,6.0,16.0,41,0.00,,,0.00,Wunderground v.1.15,2013-02-16 04:05:00,
2013-02-15 21:10:00,25.3,4.8,30.26,South,189,6.0,6.0,41,0.00,,,0.00,Wunderground v.1.15,2013-02-16 04:10:00,
2013-02-15 21:15:00,25.4,4.9,30.25,South,169,7.0,7.0,41,0.00,,,0.00,Wunderground v.1.15,2013-02-16 04:15:00,
2013-02-15 21:25:00,25.4,4.9,30.25,South,186,6.0,12.0,41,0.00,,,0.00,Wunderground v.1.15,2013-02-16 04:25:00,
2013-02-15 21:30:00,25.4,4.9,30.23,SW,230,7.0,7.0,41,0.00,,,0.00,Wunderground v.1.15,2013-02-16 04:30:00,
2013-02-15 21:40:00,26.0,5.5,30.23,WSW,258,0.0,0.0,41,0.00,,,0.00,Wunderground v.1.15,2013-02-16 04:40:00,
2013-02-15 21:45:00,25.8,5.3,30.23,SSE,157,7.0,7.0,41,0.00,,,0.00,Wunderground v.1.15,2013-02-16 04:45:00,
2013-02-15 21:55:00,25.8,5.3,30.23,SSW,196,12.0,12.0,41,0.00,,,0.00,Wunderground v.1.15,2013-02-16 04:55:00,
2013-02-15 22:00:00,26.0,6.0,30.23,SSW,193,14.0,14.0,42,0.00,,,0.00,Wunderground v.1.15,2013-02-16 05:00:00,
2013-02-15 22:05:00,26.1,6.1,30.23,SSW,195,9.0,14.0,42,0.00,,,0.00,Wunderground v.1.15,2013-02-16 05:05:00,
2013-02-15 22:10:00,26.1,6.1,30.23,South,186,6.0,8.0,42,0.00,,,0.00,Wunderground v.1.15,2013-02-16 05:10:00,
2013-02-15 22:15:00,26.4,6.4,30.23,SSW,205,11.0,11.0,42,0.00,,,0.00,Wunderground v.1.15,2013-02-16 05:15:00,
2013-02-15 22:25:00,26.6,6.6,30.23,WNW,289,9.0,26.0,42,0.00,,,0.00,Wunderground v.1.15,2013-02-16 05:25:00,
2013-02-15 22:30:00,26.7,6.6,30.20,NW,320,7.0,7.0,42,0.00,,,0.00,Wunderground v.1.15,2013-02-16 05:30:00,
2013-02-15 22:35:00,26.9,6.8,30.20,SSW,192,13.0,24.0,42,0.00,,,0.00,Wunderground v.1.15,2013-02-16 05:35:00,
2013-02-15 22:40:00,27.0,6.4,30.20,SSW,196,10.0,10.0,41,0.00,,,0.00,Wunderground v.1.15,2013-02-16 05:40:00,
2013-02-15 22:45:00,27.0,6.4,30.19,SSW,193,8.0,17.0,41,0.00,,,0.00,Wunderground v.1.15,2013-02-16 05:45:00,
2013-02-15 22:50:00,27.0,6.4,30.19,WSW,253,7.0,7.0,41,0.00,,,0.00,Wunderground v.1.15,2013-02-16 05:50:00,
2013-02-15 22:55:00,27.2,6.6,30.19,South,172,3.0,7.0,41,0.00,,,0.00,Wunderground v.1.15,2013-02-16 05:55:00,
2013-02-15 23:00:00,27.2,6.6,30.19,ENE,66,0.0,0.0,41,0.00,,,0.00,Wunderground v.1.15,2013-02-16 06:00:00,
2013-02-15 23:10:00,-999.9,-99.9,30.19,North,32767,-999.0,0.0,255,-99.99,,,0.00,Wunderground v.1.15,2013-02-16 06:10:00,
2013-02-15 23:15:00,-999.9,-99.9,30.12,North,32767,-999.0,0.0,255,-99.99,,,0.00,Wunderground v.1.15,2013-02-16 06:15:00,
2013-02-15 23:25:00,-999.9,-99.9,30.12,West,268,12.0,12.0,255,0.00,,,0.00,Wunderground v.1.15,2013-02-16 06:25:00,
2013-02-15 23:30:00,27.5,-99.9,30.12,West,278,11.0,11.0,255,0.00,,,0.00,Wunderground v.1.15,2013-02-16 06:30:00,
2013-02-15 23:40:00,27.5,-99.9,30.12,SW,220,11.0,11.0,255,0.00,,,0.00,Wunderground v.1.15,2013-02-16 06:40:00,
2013-02-15 23:45:00,27.5,-99.9,30.11,SSE,150,6.0,11.0,255,0.00,,,0.00,Wunderground v.1.15,2013-02-16 06:45:00,
2013-02-15 23:55:00,27.6,-99.9,30.11,SSW,193,11.0,11.0,255,0.00,,,0.00,Wunderground v.1.15,2013-02-16 06:55:00,